Location: Boda
(47.1872°N, 9.5454°E)
Time: 18:40:35
(UTC+00:00)

CZ-2C R/B - Pass Details

Date: 14 May 2021
Orbit: 669 x 783 km, 98.2° (Epoch: 15 June)

Event Time Altitude Azimuth Distance (km) Brightness Sun altitude
Rises 02:20:30 0° 23° (NNE) 3,241 7.2 -12.5°
Reaches altitude 10° 02:23:06 10° 34° (NE) 2,324 6.4 -12.2°
Maximum altitude 02:27:34 30° 94° (E) 1,387 4.3 -11.6°
Drops below altitude 10° 02:32:04 10° 155° (SSE) 2,334 4.8 -11.1°
Sets 02:34:39 0° 166° (SSE) 3,259 5.5 -10.8°
